TimeEDT,TemperatureF,Dew PointF,Humidity,Sea Level PressureIn,VisibilityMPH,Wind Direction,Wind SpeedMPH,Gust SpeedMPH,PrecipitationIn,Events,Conditions,WindDirDegrees,DateUTC
12:35 AM,51.8,32.0,47,30.09,10.0,SSW,9.2,-,N/A,,Clear,200,2013-03-10 05:35:00
12:55 AM,51.8,32.0,47,30.09,10.0,SSW,8.1,-,N/A,,Scattered Clouds,200,2013-03-10 05:55:00
1:15 AM,51.8,32.0,47,30.09,10.0,SSW,8.1,-,N/A,,Scattered Clouds,200,2013-03-10 06:15:00
1:35 AM,51.8,32.0,47,30.08,10.0,SSW,8.1,-,N/A,,Clear,200,2013-03-10 06:35:00
1:55 AM,51.8,32.0,47,30.08,10.0,SSW,8.1,-,N/A,,Clear,200,2013-03-10 06:55:00
3:15 AM,51.8,32.0,47,30.07,10.0,SSW,6.9,-,N/A,,Clear,200,2013-03-10 07:15:00
3:35 AM,51.8,32.0,47,30.06,10.0,South,6.9,-,N/A,,Clear,190,2013-03-10 07:35:00
3:55 AM,50.0,32.0,50,30.06,10.0,SSW,8.1,-,N/A,,Clear,200,2013-03-10 07:55:00
4:15 AM,50.0,32.0,50,30.05,10.0,South,5.8,-,N/A,,Clear,190,2013-03-10 08:15:00
4:35 AM,50.0,32.0,50,30.05,10.0,SSW,5.8,-,N/A,,Clear,200,2013-03-10 08:35:00
4:55 AM,48.2,32.0,54,30.05,10.0,SSW,6.9,-,N/A,,Clear,200,2013-03-10 08:55:00
5:15 AM,50.0,32.0,50,30.04,10.0,South,9.2,-,N/A,,Clear,190,2013-03-10 09:15:00
5:35 AM,50.0,32.0,50,30.04,10.0,South,9.2,-,N/A,,Clear,180,2013-03-10 09:35:00
5:55 AM,50.0,32.0,50,30.04,10.0,South,12.7,-,N/A,,Clear,180,2013-03-10 09:55:00
6:15 AM,50.0,32.0,50,30.04,10.0,South,5.8,-,N/A,,Clear,190,2013-03-10 10:15:00
6:35 AM,51.8,32.0,47,30.05,10.0,South,8.1,-,N/A,,Clear,190,2013-03-10 10:35:00
6:55 AM,51.8,32.0,47,30.04,10.0,South,9.2,-,N/A,,Clear,180,2013-03-10 10:55:00
7:15 AM,50.0,32.0,50,30.04,10.0,SW,6.9,-,N/A,,Clear,220,2013-03-10 11:15:00
7:35 AM,50.0,32.0,50,30.05,10.0,SSW,9.2,-,N/A,,Clear,200,2013-03-10 11:35:00
7:55 AM,50.0,32.0,50,30.07,10.0,SW,8.1,-,N/A,,Clear,220,2013-03-10 11:55:00
8:15 AM,50.0,32.0,50,30.07,10.0,SSW,10.4,16.1,N/A,,Clear,200,2013-03-10 12:15:00
8:35 AM,51.8,32.0,47,30.08,10.0,SSW,10.4,16.1,N/A,,Clear,210,2013-03-10 12:35:00
8:55 AM,51.8,32.0,47,30.07,10.0,SSW,10.4,16.1,N/A,,Clear,200,2013-03-10 12:55:00
9:15 AM,51.8,32.0,47,30.07,10.0,SSW,10.4,-,N/A,,Clear,200,2013-03-10 13:15:00
9:35 AM,51.8,32.0,47,30.07,10.0,SSW,8.1,-,N/A,,Clear,200,2013-03-10 13:35:00
9:55 AM,53.6,32.0,44,30.08,10.0,SSW,9.2,-,N/A,,Clear,210,2013-03-10 13:55:00
10:15 AM,53.6,32.0,44,30.07,10.0,SSW,9.2,-,N/A,,Clear,200,2013-03-10 14:15:00
10:35 AM,53.6,32.0,44,30.07,10.0,South,8.1,-,N/A,,Clear,190,2013-03-10 14:35:00
10:55 AM,55.4,32.0,41,30.06,10.0,South,8.1,16.1,N/A,,Clear,190,2013-03-10 14:55:00
11:15 AM,59.0,32.0,36,30.05,10.0,South,11.5,17.3,N/A,,Clear,190,2013-03-10 15:15:00
11:35 AM,59.0,32.0,36,30.05,10.0,SSW,15.0,23.0,N/A,,Clear,200,2013-03-10 15:35:00
11:55 AM,60.8,32.0,34,30.06,10.0,SSW,13.8,20.7,N/A,,Clear,200,2013-03-10 15:55:00
12:15 PM,62.6,32.0,32,30.05,10.0,SSW,13.8,19.6,N/A,,Clear,200,2013-03-10 16:15:00
12:35 PM,62.6,32.0,32,30.05,10.0,South,13.8,20.7,N/A,,Clear,180,2013-03-10 16:35:00
12:55 PM,62.6,32.0,32,30.03,10.0,South,13.8,20.7,N/A,,Clear,190,2013-03-10 16:55:00
1:15 PM,62.6,32.0,32,30.04,10.0,SSW,13.8,18.4,N/A,,Clear,200,2013-03-10 17:15:00
1:35 PM,62.6,32.0,32,30.05,10.0,SSW,12.7,16.1,N/A,,Clear,210,2013-03-10 17:35:00
1:55 PM,64.4,32.0,30,30.04,10.0,SSW,8.1,-,N/A,,Clear,200,2013-03-10 17:55:00
2:15 PM,64.4,32.0,30,30.02,10.0,South,9.2,16.1,N/A,,Clear,190,2013-03-10 18:15:00
2:35 PM,64.4,32.0,30,30.01,10.0,South,8.1,17.3,N/A,,Clear,190,2013-03-10 18:35:00
2:55 PM,66.2,32.0,28,30.00,10.0,SSW,12.7,19.6,N/A,,Clear,200,2013-03-10 18:55:00
4:15 PM,66.2,30.2,26,29.97,10.0,SSW,11.5,23.0,N/A,,Clear,200,2013-03-10 20:15:00
4:35 PM,64.4,32.0,30,29.96,10.0,South,11.5,21.9,N/A,,Clear,190,2013-03-10 20:35:00
4:55 PM,64.4,32.0,30,29.97,10.0,South,10.4,16.1,N/A,,Clear,190,2013-03-10 20:55:00
5:15 PM,64.4,32.0,30,29.96,10.0,South,10.4,-,N/A,,Clear,180,2013-03-10 21:15:00
5:35 PM,64.4,32.0,30,29.94,10.0,South,12.7,18.4,N/A,,Clear,190,2013-03-10 21:35:00
5:55 PM,64.4,32.0,30,29.93,10.0,South,11.5,16.1,N/A,,Clear,170,2013-03-10 21:55:00
6:15 PM,64.4,32.0,30,29.92,10.0,South,15.0,-,N/A,,Clear,180,2013-03-10 22:15:00
6:35 PM,64.4,32.0,30,29.92,10.0,South,15.0,21.9,N/A,,Clear,190,2013-03-10 22:35:00
6:55 PM,64.4,32.0,30,29.91,10.0,South,10.4,-,N/A,,Clear,170,2013-03-10 22:55:00
7:15 PM,62.6,32.0,32,29.91,10.0,South,11.5,-,N/A,,Clear,170,2013-03-10 23:15:00
7:35 PM,62.6,32.0,32,29.91,10.0,South,10.4,-,N/A,,Clear,180,2013-03-10 23:35:00
7:55 PM,62.6,32.0,32,29.90,10.0,South,10.4,-,N/A,,Clear,170,2013-03-10 23:55:00
8:15 PM,60.8,32.0,34,29.89,10.0,SSE,10.4,-,N/A,,Clear,160,2013-03-11 00:15:00
8:35 PM,62.6,32.0,32,29.88,10.0,South,13.8,20.7,N/A,,Clear,170,2013-03-11 00:35:00
8:55 PM,62.6,32.0,32,29.89,10.0,South,12.7,19.6,N/A,,Clear,180,2013-03-11 00:55:00
9:15 PM,60.8,32.0,34,29.90,10.0,South,5.8,-,N/A,,Clear,190,2013-03-11 01:15:00
9:35 PM,62.6,32.0,32,29.89,10.0,South,11.5,-,N/A,,Clear,180,2013-03-11 01:35:00
9:55 PM,62.6,30.2,30,29.88,10.0,South,12.7,19.6,N/A,,Clear,180,2013-03-11 01:55:00
10:15 PM,60.8,32.0,34,29.90,10.0,South,10.4,18.4,N/A,,Clear,190,2013-03-11 02:15:00
10:35 PM,60.8,30.2,31,29.88,10.0,South,12.7,16.1,N/A,,Clear,190,2013-03-11 02:35:00
10:55 PM,62.6,32.0,32,29.90,10.0,South,12.7,19.6,N/A,,Clear,190,2013-03-11 02:55:00
11:15 PM,62.6,32.0,32,29.89,10.0,SSW,12.7,18.4,N/A,,Scattered Clouds,200,2013-03-11 03:15:00
11:35 PM,60.8,32.0,34,29.89,10.0,SSW,12.7,18.4,N/A,,Scattered Clouds,200,2013-03-11 03:35:00
11:55 PM,60.8,32.0,34,29.89,10.0,South,11.5,-,N/A,,Scattered Clouds,190,2013-03-11 03:55:00
12:35 AM,62.6,33.8,34,29.88,10.0,SSW,13.8,24.2,N/A,Rain,Light Rain,200,2013-03-11 04:35:00
12:55 AM,60.8,33.8,36,29.85,10.0,South,16.1,27.6,N/A,,Overcast,190,2013-03-11 04:55:00